User: anonymous   Login
Location: Four Corners
(38.2757°N, 122.4608°W)
Time: 11:31:15
(UTC+00:00)
Language:

FALCON 9 DEB - Orbit

View from above orbital plane
View from above orbital plane
View from above satellite
View from above satellite

Ground track
Ground track

The orbit data is extracted from the following two-line orbital elements,

1 44295U 19029BN  20058.12641708  .00001561  00000-0  43920-4 0  9994
2 44295  53.0012 289.5835 0010953  72.4611 287.7589 15.43235731 44307
Epoch (UTC): 27 February 2020 03:02:02
Eccentricity: 0.0010953
inclination: 53.0012°
perigee height: 429 km
apogee height: 444 km
right ascension of ascending node: 289.5835°
argument of perigee: 72.4611°
revolutions per day: 15.43235731
mean anomaly at epoch: 287.7589°
orbit number at epoch: 4430

The dashed part of the orbit path shows where the satellite is in the earth's shadow,  

DLR